Find Starlink 35521

NORAD ID: 65916 Int'l Des: 2025-225 Owner: SPXS Country: US Constellation: starlink operational
LEOCIRCULAR

Current View

Loading 3D Globe...

About Starlink 35521

Description loading...

Upcoming Passes

Passes for default location (London). Set your location on the main map for personalized predictions.

Altitude History

Loading altitude history...

Two-Line Element Set

1 65916U 25225G 26149.52593157 .00032690 00000-0 11106-2 0 9993
2 65916 53.1592 150.2659 0001227 67.2728 292.8403 15.30210932 36784
Epoch: May 29, 2026 • Age: 20 hours

Current Status

Altitude 493.1 km
Velocity 7.62 km/s
Sub-Earth Point -50.33°S, 64.36°E
Launch Date Oct 8, 2025
Age 0.6 years
Type internet

Technical Details

Classification Payload
Mass 575.00 kg
Dry Mass 530.00 kg
Total Mass 575.00 kg
Length 0.30 m
Diameter 4.10 m
Span 29.00 m
Shape Box + pan
Manufacturer SPXS
Bus Type Starlink V2MO
Phase Status In Orbit
Owner/State SPXS/US

Most Searched